Time,TemperatureF,DewpointF,PressureIn,WindDirection,WindDirectionDegrees,WindSpeedMPH,WindSpeedGustMPH,Humidity,HourlyPrecipIn,Conditions,Clouds,dailyrainin,SoftwareType,DateUTC
2013-02-11 00:00:00,41.7,41.7,30.29,NNE,25,0.0,0.0,100,0.00,,---,0.00,VWS V14.01,2013-02-11 08:00:00,
2013-02-11 00:05:00,41.7,41.7,30.29,NNE,25,0.0,0.0,100,0.00,,---,0.00,VWS V14.01,2013-02-11 08:05:00,
2013-02-11 00:10:00,41.7,41.7,30.29,NNE,25,0.0,0.0,100,0.00,,---,0.00,VWS V14.01,2013-02-11 08:10:00,
2013-02-11 00:15:00,41.7,41.7,30.29,NNE,25,0.0,0.0,100,0.00,,---,0.00,VWS V14.01,2013-02-11 08:15:00,
2013-02-11 00:20:00,41.5,41.5,30.29,NNE,25,0.0,0.0,100,0.00,,---,0.00,VWS V14.01,2013-02-11 08:20:00,
2013-02-11 00:25:00,41.5,41.5,30.29,NNE,25,0.0,0.0,100,0.00,,---,0.00,VWS V14.01,2013-02-11 08:25:00,
2013-02-11 00:30:00,41.4,41.4,30.29,NNE,25,0.0,0.0,100,0.00,,---,0.00,VWS V14.01,2013-02-11 08:30:00,
2013-02-11 00:35:00,41.4,41.4,30.29,NNE,25,0.0,0.0,100,0.00,,---,0.00,VWS V14.01,2013-02-11 08:35:00,
2013-02-11 00:40:00,41.4,41.4,30.29,NNE,25,0.0,0.0,100,0.00,,---,0.00,VWS V14.01,2013-02-11 08:40:00,
2013-02-11 00:45:00,41.2,41.2,30.29,NNE,25,0.0,0.0,100,0.00,,---,0.00,VWS V14.01,2013-02-11 08:45:00,
2013-02-11 00:50:00,41.2,41.2,30.32,NNE,25,0.0,0.0,100,0.00,,---,0.00,VWS V14.01,2013-02-11 08:50:00,
2013-02-11 00:55:00,41.2,41.2,30.32,NNE,25,0.0,0.0,100,0.00,,---,0.00,VWS V14.01,2013-02-11 08:55:00,
2013-02-11 01:00:00,41.2,41.2,30.32,NNE,25,0.0,0.0,100,0.00,,---,0.00,VWS V14.01,2013-02-11 09:00:00,
2013-02-11 01:05:00,41.2,41.2,30.29,NNE,25,0.0,0.0,100,0.00,,---,0.00,VWS V14.01,2013-02-11 09:05:00,
2013-02-11 01:10:00,41.2,41.2,30.29,NNE,25,0.0,0.0,100,0.00,,---,0.00,VWS V14.01,2013-02-11 09:10:00,
2013-02-11 01:15:00,41.2,41.2,30.29,NNE,25,0.0,0.0,100,0.00,,---,0.00,VWS V14.01,2013-02-11 09:15:00,
2013-02-11 01:20:00,41.4,41.4,30.32,NNE,25,0.0,0.0,100,0.00,,---,0.00,VWS V14.01,2013-02-11 09:20:00,
2013-02-11 01:25:00,41.5,41.5,30.32,NNE,25,0.0,0.0,100,0.00,,---,0.00,VWS V14.01,2013-02-11 09:25:00,
2013-02-11 01:30:00,41.5,41.5,30.32,NNE,25,0.0,0.0,100,0.00,,---,0.00,VWS V14.01,2013-02-11 09:30:00,
2013-02-11 01:35:00,41.5,41.5,30.32,NNE,25,0.0,0.0,100,0.00,,---,0.00,VWS V14.01,2013-02-11 09:35:00,
2013-02-11 01:40:00,41.5,41.5,30.32,NNE,25,0.0,0.0,100,0.00,,---,0.00,VWS V14.01,2013-02-11 09:40:00,
2013-02-11 01:45:00,41.5,41.5,30.32,NNE,25,0.0,0.0,100,0.00,,---,0.00,VWS V14.01,2013-02-11 09:45:00,
2013-02-11 01:50:00,41.5,41.5,30.32,NNE,25,0.0,0.0,100,0.00,,---,0.00,VWS V14.01,2013-02-11 09:50:00,
2013-02-11 01:55:00,41.5,41.5,30.32,NNE,25,0.0,0.0,100,0.00,,---,0.00,VWS V14.01,2013-02-11 09:55:00,
2013-02-11 02:00:00,41.5,41.5,30.32,NNE,25,0.0,0.0,100,0.00,,---,0.00,VWS V14.01,2013-02-11 10:00:00,
2013-02-11 02:05:00,41.7,41.7,30.29,NNE,25,0.0,0.0,100,0.00,,---,0.00,VWS V14.01,2013-02-11 10:05:00,
2013-02-11 02:10:00,41.7,41.7,30.29,NNE,25,0.0,0.0,100,0.00,,---,0.00,VWS V14.01,2013-02-11 10:10:00,
2013-02-11 02:15:00,41.9,41.9,30.29,NNE,25,0.0,0.0,100,0.00,,---,0.00,VWS V14.01,2013-02-11 10:15:00,
2013-02-11 02:20:00,41.9,41.9,30.29,NNE,25,0.0,0.0,100,0.00,,---,0.00,VWS V14.01,2013-02-11 10:20:00,
2013-02-11 02:25:00,41.9,41.9,30.29,NNE,25,0.0,0.0,100,0.00,,---,0.00,VWS V14.01,2013-02-11 10:25:00,
2013-02-11 02:30:00,41.9,41.9,30.29,NNE,25,0.0,0.0,100,0.00,,---,0.00,VWS V14.01,2013-02-11 10:30:00,
2013-02-11 02:35:00,41.9,41.9,30.29,NNE,25,0.0,0.0,100,0.00,,---,0.00,VWS V14.01,2013-02-11 10:35:00,
2013-02-11 02:40:00,41.9,41.9,30.29,NNE,25,0.0,0.0,100,0.00,,---,0.00,VWS V14.01,2013-02-11 10:40:00,
2013-02-11 02:45:00,41.7,41.7,30.29,NNE,25,0.0,0.0,100,0.00,,---,0.00,VWS V14.01,2013-02-11 10:45:00,
2013-02-11 02:50:00,41.5,41.5,30.29,NNE,25,0.0,0.0,100,0.00,,---,0.00,VWS V14.01,2013-02-11 10:50:00,
2013-02-11 02:55:00,41.5,41.5,30.29,NNE,25,0.0,0.0,100,0.00,,---,0.00,VWS V14.01,2013-02-11 10:55:00,
2013-02-11 03:00:00,41.4,41.4,30.29,NNE,25,0.0,0.0,100,0.00,,---,0.00,VWS V14.01,2013-02-11 11:00:00,
2013-02-11 03:05:00,41.4,41.4,30.29,NNE,25,0.0,0.0,100,0.00,,---,0.00,VWS V14.01,2013-02-11 11:05:00,
2013-02-11 03:10:00,41.4,41.4,30.29,NNE,25,0.0,0.0,100,0.00,,---,0.00,VWS V14.01,2013-02-11 11:10:00,
2013-02-11 03:15:00,41.4,41.4,30.29,NNE,25,0.0,0.0,100,0.00,,---,0.00,VWS V14.01,2013-02-11 11:15:00,
2013-02-11 03:20:00,41.4,41.4,30.29,NNE,25,0.0,0.0,100,0.00,,---,0.00,VWS V14.01,2013-02-11 11:20:00,
2013-02-11 03:25:00,41.4,41.4,30.29,NNE,25,0.0,0.0,100,0.00,,---,0.00,VWS V14.01,2013-02-11 11:25:00,
2013-02-11 03:30:00,41.4,41.4,30.29,NNE,25,0.0,0.0,100,0.00,,---,0.00,VWS V14.01,2013-02-11 11:30:00,
2013-02-11 03:35:00,41.4,41.4,30.26,NNE,25,0.0,0.0,100,0.00,,---,0.00,VWS V14.01,2013-02-11 11:35:00,
2013-02-11 03:40:00,41.4,41.4,30.26,NNE,25,0.0,0.0,100,0.00,,---,0.00,VWS V14.01,2013-02-11 11:40:00,
2013-02-11 03:45:00,41.5,41.5,30.29,NNE,25,0.0,0.0,100,0.00,,---,0.00,VWS V14.01,2013-02-11 11:45:00,
2013-02-11 03:50:00,41.5,41.5,30.29,NNE,25,0.0,0.0,100,0.00,,---,0.00,VWS V14.01,2013-02-11 11:50:00,
2013-02-11 03:55:00,41.5,41.5,30.29,NNE,25,0.0,0.0,100,0.00,,---,0.00,VWS V14.01,2013-02-11 11:55:00,
2013-02-11 04:00:00,41.5,41.5,30.29,NNE,25,0.0,0.0,100,0.00,,---,0.00,VWS V14.01,2013-02-11 12:00:00,
2013-02-11 04:05:00,41.5,41.5,30.29,NNE,25,0.0,0.0,100,0.00,,---,0.00,VWS V14.01,2013-02-11 12:05:00,
2013-02-11 04:10:00,41.5,41.5,30.29,NNE,25,0.0,0.0,100,0.00,,---,0.00,VWS V14.01,2013-02-11 12:10:00,
2013-02-11 04:15:00,41.4,41.4,30.29,NNE,25,0.0,0.0,100,0.00,,---,0.00,VWS V14.01,2013-02-11 12:15:00,
2013-02-11 04:20:00,41.2,41.2,30.29,NNE,25,0.0,0.0,100,0.00,,---,0.00,VWS V14.01,2013-02-11 12:20:00,
2013-02-11 04:25:00,41.2,41.2,30.29,NNE,25,0.0,0.0,100,0.00,,---,0.00,VWS V14.01,2013-02-11 12:25:00,
2013-02-11 04:30:00,41.2,41.2,30.29,NNE,25,0.0,0.0,100,0.00,,---,0.00,VWS V14.01,2013-02-11 12:30:00,
2013-02-11 04:35:00,41.0,41.0,30.29,NNE,25,0.0,0.0,100,0.00,,---,0.00,VWS V14.01,2013-02-11 12:35:00,
2013-02-11 04:40:00,41.0,41.0,30.29,NNE,25,0.0,0.0,100,0.00,,---,0.00,VWS V14.01,2013-02-11 12:40:00,
2013-02-11 04:45:00,40.8,40.8,30.29,NNE,25,0.0,0.0,100,0.00,,---,0.00,VWS V14.01,2013-02-11 12:45:00,
2013-02-11 04:49:00,40.8,40.8,30.29,NNE,25,0.0,0.0,100,0.00,,---,0.00,VWS V14.01,2013-02-11 12:49:00,
2013-02-11 04:54:00,40.6,40.6,30.29,NNE,25,0.0,0.0,100,0.00,,---,0.00,VWS V14.01,2013-02-11 12:54:00,
2013-02-11 04:59:00,40.6,40.6,30.29,NNE,25,0.0,0.0,100,0.00,,---,0.00,VWS V14.01,2013-02-11 12:59:00,
2013-02-11 05:04:00,40.6,40.6,30.29,NNE,25,0.0,0.0,100,0.00,,---,0.00,VWS V14.01,2013-02-11 13:04:00,
2013-02-11 05:10:00,40.6,40.6,30.29,NNE,25,0.0,0.0,100,0.00,,---,0.00,VWS V14.01,2013-02-11 13:10:00,
2013-02-11 05:14:00,40.6,40.6,30.29,NNE,25,0.0,0.0,100,0.00,,---,0.00,VWS V14.01,2013-02-11 13:14:00,
2013-02-11 05:19:00,40.6,40.6,30.29,NNE,25,0.0,0.0,100,0.00,,---,0.00,VWS V14.01,2013-02-11 13:19:00,
2013-02-11 05:25:00,40.6,40.6,30.29,NNE,25,0.0,0.0,100,0.00,,---,0.00,VWS V14.01,2013-02-11 13:25:00,
2013-02-11 05:29:00,40.6,40.6,30.29,NNE,25,0.0,0.0,100,0.00,,---,0.00,VWS V14.01,2013-02-11 13:29:00,
2013-02-11 05:34:00,40.6,40.6,30.29,NNE,25,0.0,0.0,100,0.00,,---,0.00,VWS V14.01,2013-02-11 13:34:00,
2013-02-11 05:39:00,40.6,40.6,30.29,NNE,25,0.0,0.0,100,0.00,,---,0.00,VWS V14.01,2013-02-11 13:39:00,
2013-02-11 05:44:00,40.6,40.6,30.29,NNE,25,0.0,0.0,100,0.00,,---,0.00,VWS V14.01,2013-02-11 13:44:00,
2013-02-11 05:49:00,40.6,40.6,30.29,NNE,25,0.0,0.0,100,0.00,,---,0.00,VWS V14.01,2013-02-11 13:49:00,
2013-02-11 05:54:00,40.6,40.6,30.29,NNE,25,0.0,0.0,100,0.00,,---,0.00,VWS V14.01,2013-02-11 13:54:00,
2013-02-11 05:59:00,40.6,40.6,30.29,NNE,25,0.0,0.0,100,0.00,,---,0.00,VWS V14.01,2013-02-11 13:59:00,
2013-02-11 06:04:00,40.6,40.6,30.29,NNE,25,0.0,0.0,100,0.00,,---,0.00,VWS V14.01,2013-02-11 14:04:00,
2013-02-11 06:09:00,40.6,40.6,30.29,NNE,25,0.0,0.0,100,0.00,,---,0.00,VWS V14.01,2013-02-11 14:09:00,
2013-02-11 06:14:00,40.6,40.6,30.29,NNE,25,0.0,0.0,100,0.00,,---,0.00,VWS V14.01,2013-02-11 14:14:00,
2013-02-11 06:19:00,40.6,40.6,30.29,NNE,25,0.0,0.0,100,0.00,,---,0.00,VWS V14.01,2013-02-11 14:19:00,
2013-02-11 06:24:00,40.6,40.6,30.29,NNE,25,0.0,0.0,100,0.00,,---,0.00,VWS V14.01,2013-02-11 14:24:00,
2013-02-11 06:29:00,40.8,40.8,30.29,NNE,25,0.0,0.0,100,0.00,,---,0.00,VWS V14.01,2013-02-11 14:29:00,
2013-02-11 06:34:00,40.8,40.8,30.29,NNE,25,0.0,0.0,100,0.00,,---,0.00,VWS V14.01,2013-02-11 14:34:00,
2013-02-11 06:39:00,40.8,40.8,30.29,NNE,25,0.0,0.0,100,0.00,,---,0.00,VWS V14.01,2013-02-11 14:39:00,
2013-02-11 06:44:00,41.0,41.0,30.29,NNE,25,0.0,0.0,100,0.00,,---,0.00,VWS V14.01,2013-02-11 14:44:00,
2013-02-11 06:49:00,41.0,41.0,30.29,NNE,25,0.0,0.0,100,0.00,,---,0.00,VWS V14.01,2013-02-11 14:49:00,
2013-02-11 06:54:00,41.0,41.0,30.29,NNE,25,0.0,0.0,100,0.00,,---,0.00,VWS V14.01,2013-02-11 14:54:00,
2013-02-11 06:59:00,41.0,41.0,30.29,NNE,25,0.0,0.0,100,0.00,,---,0.00,VWS V14.01,2013-02-11 14:59:00,
2013-02-11 07:04:00,41.2,41.2,30.29,NNE,25,0.0,0.0,100,0.00,,---,0.00,VWS V14.01,2013-02-11 15:04:00,
2013-02-11 07:09:00,41.2,41.2,30.29,NNE,25,0.0,0.0,100,0.00,,---,0.00,VWS V14.01,2013-02-11 15:09:00,
2013-02-11 07:14:00,41.2,41.2,30.29,NNE,25,0.0,0.0,100,0.00,,---,0.00,VWS V14.01,2013-02-11 15:14:00,
2013-02-11 07:19:00,41.2,41.2,30.29,NNE,25,0.0,0.0,100,0.00,,---,0.00,VWS V14.01,2013-02-11 15:19:00,
2013-02-11 07:24:00,41.2,41.2,30.29,NNE,25,0.0,0.0,100,0.00,,---,0.00,VWS V14.01,2013-02-11 15:24:00,
2013-02-11 07:29:00,41.2,41.2,30.29,NNE,25,0.0,0.0,100,0.00,,---,0.00,VWS V14.01,2013-02-11 15:29:00,
2013-02-11 07:34:00,41.2,41.2,30.29,NNE,25,0.0,0.0,100,0.00,,---,0.00,VWS V14.01,2013-02-11 15:34:00,
2013-02-11 07:39:00,41.2,41.2,30.29,NNE,25,0.0,0.0,100,0.00,,---,0.00,VWS V14.01,2013-02-11 15:39:00,
2013-02-11 07:44:00,41.2,41.2,30.29,NNE,25,0.0,0.0,100,0.00,,---,0.00,VWS V14.01,2013-02-11 15:44:00,
2013-02-11 07:49:00,41.4,41.4,30.29,NNE,25,0.0,0.0,100,0.00,,---,0.00,VWS V14.01,2013-02-11 15:49:00,
2013-02-11 07:54:00,41.4,41.4,30.29,NNE,25,0.0,0.0,100,0.00,,---,0.00,VWS V14.01,2013-02-11 15:54:00,
2013-02-11 07:59:00,41.4,41.4,30.29,NNE,25,0.0,0.0,100,0.00,,---,0.00,VWS V14.01,2013-02-11 15:59:00,
2013-02-11 08:04:00,41.4,41.4,30.29,NNE,25,0.0,0.0,100,0.00,,---,0.00,VWS V14.01,2013-02-11 16:04:00,
2013-02-11 08:09:00,41.4,41.4,30.29,NNE,25,0.0,0.0,100,0.00,,---,0.00,VWS V14.01,2013-02-11 16:09:00,
2013-02-11 08:14:00,41.4,41.4,30.29,NNE,25,0.0,0.0,100,0.00,,---,0.00,VWS V14.01,2013-02-11 16:14:00,
2013-02-11 08:19:00,41.5,41.5,30.29,NNE,25,0.0,0.0,100,0.00,,---,0.00,VWS V14.01,2013-02-11 16:19:00,
2013-02-11 08:24:00,41.5,41.5,30.29,NNE,25,0.0,0.0,100,0.00,,---,0.00,VWS V14.01,2013-02-11 16:24:00,
2013-02-11 08:29:00,41.5,41.5,30.29,NNE,25,0.0,0.0,100,0.00,,---,0.00,VWS V14.01,2013-02-11 16:29:00,
2013-02-11 08:34:00,41.7,41.7,30.29,NNE,25,0.0,0.0,100,0.00,,---,0.00,VWS V14.01,2013-02-11 16:34:00,
2013-02-11 08:39:00,41.7,41.7,30.29,NNE,25,0.0,0.0,100,0.00,,---,0.00,VWS V14.01,2013-02-11 16:39:00,
2013-02-11 08:44:00,41.9,41.9,30.29,NNE,25,0.0,0.0,100,0.00,,---,0.00,VWS V14.01,2013-02-11 16:44:00,
2013-02-11 08:49:00,41.9,41.9,30.29,NNE,25,0.0,0.0,100,0.00,,---,0.00,VWS V14.01,2013-02-11 16:49:00,
2013-02-11 08:54:00,42.1,42.1,30.29,NNE,25,0.0,0.0,100,0.00,,---,0.00,VWS V14.01,2013-02-11 16:54:00,
2013-02-11 08:59:00,42.1,42.1,30.29,NNE,25,0.0,0.0,100,0.00,,---,0.00,VWS V14.01,2013-02-11 16:59:00,
2013-02-11 09:04:00,42.1,42.1,30.29,NNE,25,0.0,0.0,100,0.00,,---,0.00,VWS V14.01,2013-02-11 17:04:00,
2013-02-11 09:09:00,42.3,42.3,30.29,NNE,25,0.0,0.0,100,0.00,,---,0.00,VWS V14.01,2013-02-11 17:09:00,
2013-02-11 09:14:00,42.3,42.3,30.29,NNE,25,0.0,0.0,100,0.00,,---,0.00,VWS V14.01,2013-02-11 17:14:00,
2013-02-11 09:19:00,42.3,42.3,30.29,NNE,25,0.0,0.0,100,0.00,,---,0.00,VWS V14.01,2013-02-11 17:19:00,
2013-02-11 09:24:00,42.4,42.4,30.32,NNE,25,0.0,0.0,100,0.00,,---,0.00,VWS V14.01,2013-02-11 17:24:00,
2013-02-11 09:29:00,42.4,42.4,30.32,NNE,25,0.0,0.0,100,0.00,,---,0.00,VWS V14.01,2013-02-11 17:29:00,
2013-02-11 09:34:00,42.6,42.6,30.32,NNE,25,0.0,0.0,100,0.00,,---,0.00,VWS V14.01,2013-02-11 17:34:00,
2013-02-11 09:39:00,42.6,42.6,30.32,NNE,25,0.0,0.0,100,0.00,,---,0.00,VWS V14.01,2013-02-11 17:39:00,
2013-02-11 09:44:00,42.8,42.8,30.32,NNE,25,0.0,0.0,100,0.00,,---,0.00,VWS V14.01,2013-02-11 17:44:00,
2013-02-11 09:49:00,42.8,42.8,30.32,NNE,25,0.0,0.0,100,0.00,,---,0.00,VWS V14.01,2013-02-11 17:49:00,
2013-02-11 09:54:00,43.0,43.0,30.32,NNE,25,0.0,0.0,100,0.00,,---,0.00,VWS V14.01,2013-02-11 17:54:00,
2013-02-11 09:59:00,43.0,43.0,30.32,NNE,25,0.0,0.0,100,0.00,,---,0.00,VWS V14.01,2013-02-11 17:59:00,
2013-02-11 10:04:00,43.0,43.0,30.32,NNE,25,0.0,0.0,100,0.00,,---,0.00,VWS V14.01,2013-02-11 18:04:00,
2013-02-11 10:09:00,43.2,43.2,30.32,NNE,25,0.0,0.0,100,0.00,,---,0.00,VWS V14.01,2013-02-11 18:09:00,
2013-02-11 10:14:00,43.3,43.3,30.32,NNE,25,0.0,0.0,100,0.00,,---,0.00,VWS V14.01,2013-02-11 18:14:00,
2013-02-11 10:19:00,43.3,43.3,30.32,NNE,25,0.0,0.0,100,0.00,,---,0.00,VWS V14.01,2013-02-11 18:19:00,
2013-02-11 10:24:00,43.5,43.5,30.32,NNE,25,0.0,0.0,100,0.00,,---,0.00,VWS V14.01,2013-02-11 18:24:00,
2013-02-11 10:29:00,43.7,43.7,30.32,NNE,25,0.0,0.0,100,0.00,,---,0.00,VWS V14.01,2013-02-11 18:29:00,
2013-02-11 10:34:00,43.7,43.7,30.32,NNE,25,0.0,0.0,100,0.00,,---,0.00,VWS V14.01,2013-02-11 18:34:00,
2013-02-11 10:39:00,43.9,43.9,30.32,NNE,25,0.0,0.0,100,0.00,,---,0.00,VWS V14.01,2013-02-11 18:39:00,
2013-02-11 10:44:00,44.1,44.1,30.32,NNE,25,0.0,0.0,100,0.00,,---,0.00,VWS V14.01,2013-02-11 18:44:00,
2013-02-11 10:49:00,44.2,44.2,30.32,NNE,25,0.0,0.0,100,0.00,,---,0.00,VWS V14.01,2013-02-11 18:49:00,
2013-02-11 10:54:00,44.4,44.4,30.32,NNE,27,0.0,0.0,100,0.00,,---,0.00,VWS V14.01,2013-02-11 18:54:00,
2013-02-11 10:59:00,44.6,44.6,30.32,NNE,27,0.0,0.0,100,0.00,,---,0.00,VWS V14.01,2013-02-11 18:59:00,
2013-02-11 11:04:00,44.8,44.8,30.32,ESE,103,0.0,0.0,100,0.00,,---,0.00,VWS V14.01,2013-02-11 19:04:00,
2013-02-11 11:09:00,44.8,44.8,30.32,ESE,115,0.0,0.0,100,0.00,,---,0.00,VWS V14.01,2013-02-11 19:09:00,
2013-02-11 11:14:00,45.0,45.0,30.32,ESE,115,0.0,0.0,100,0.00,,---,0.00,VWS V14.01,2013-02-11 19:14:00,
2013-02-11 11:19:00,45.1,45.1,30.32,ESE,115,0.0,0.0,100,0.00,,---,0.00,VWS V14.01,2013-02-11 19:19:00,
2013-02-11 11:24:00,45.3,45.3,30.32,ESE,114,0.0,0.0,100,0.00,,---,0.00,VWS V14.01,2013-02-11 19:24:00,
2013-02-11 11:29:00,45.3,45.3,30.32,SE,124,0.0,0.0,100,0.00,,---,0.00,VWS V14.01,2013-02-11 19:29:00,
2013-02-11 11:34:00,45.5,45.5,30.32,SSE,156,0.0,0.0,100,0.00,,---,0.00,VWS V14.01,2013-02-11 19:34:00,
2013-02-11 11:39:00,45.5,45.5,30.32,South,190,0.0,0.0,100,0.00,,---,0.00,VWS V14.01,2013-02-11 19:39:00,
2013-02-11 11:44:00,45.5,45.5,30.32,SE,131,0.0,0.0,100,0.00,,---,0.00,VWS V14.01,2013-02-11 19:44:00,
2013-02-11 11:49:00,45.5,45.5,30.29,South,183,0.0,0.0,100,0.00,,---,0.00,VWS V14.01,2013-02-11 19:49:00,
2013-02-11 11:54:00,45.5,45.5,30.29,South,183,0.0,0.0,100,0.00,,---,0.00,VWS V14.01,2013-02-11 19:54:00,
2013-02-11 11:59:00,45.5,45.5,30.29,South,183,0.0,0.0,100,0.00,,---,0.00,VWS V14.01,2013-02-11 19:59:00,
2013-02-11 12:04:00,45.5,45.5,30.29,SSE,156,0.0,0.0,100,0.00,,---,0.00,VWS V14.01,2013-02-11 20:04:00,
2013-02-11 12:09:00,45.5,45.5,30.29,SW,223,0.0,0.0,100,0.00,,---,0.00,VWS V14.01,2013-02-11 20:09:00,
2013-02-11 12:14:00,45.7,45.7,30.29,SW,223,0.0,0.0,100,0.00,,---,0.00,VWS V14.01,2013-02-11 20:14:00,
2013-02-11 12:19:00,45.7,45.7,30.29,SW,223,0.0,0.0,100,0.00,,---,0.00,VWS V14.01,2013-02-11 20:19:00,
2013-02-11 12:24:00,45.9,45.9,30.29,SW,223,0.0,0.0,100,0.00,,---,0.00,VWS V14.01,2013-02-11 20:24:00,
2013-02-11 12:29:00,46.0,46.0,30.29,SW,223,0.0,0.0,100,0.00,,---,0.00,VWS V14.01,2013-02-11 20:29:00,
2013-02-11 12:34:00,46.0,46.0,30.29,SW,236,0.0,0.0,100,0.00,,---,0.00,VWS V14.01,2013-02-11 20:34:00,
2013-02-11 12:39:00,46.2,46.2,30.29,SSW,212,0.0,0.0,100,0.00,,---,0.00,VWS V14.01,2013-02-11 20:39:00,
2013-02-11 12:44:00,46.2,46.2,30.29,SSW,196,0.0,0.0,100,0.00,,---,0.00,VWS V14.01,2013-02-11 20:44:00,
2013-02-11 12:49:00,46.4,46.4,30.29,SE,134,0.0,0.0,100,0.00,,---,0.00,VWS V14.01,2013-02-11 20:49:00,
2013-02-11 12:54:00,46.4,46.4,30.29,ESE,120,0.0,0.0,100,0.00,,---,0.00,VWS V14.01,2013-02-11 20:54:00,
2013-02-11 12:59:00,46.4,46.4,30.29,WSW,248,0.0,3.1,100,0.00,,---,0.00,VWS V14.01,2013-02-11 20:59:00,
2013-02-11 13:04:00,46.6,46.6,30.29,SSW,209,0.0,3.1,100,0.00,,---,0.00,VWS V14.01,2013-02-11 21:04:00,
2013-02-11 13:09:00,46.6,46.6,30.29,SW,230,0.0,0.0,100,0.00,,---,0.00,VWS V14.01,2013-02-11 21:09:00,
2013-02-11 13:14:00,46.8,46.8,30.29,West,276,0.0,0.0,100,0.00,,---,0.00,VWS V14.01,2013-02-11 21:14:00,
2013-02-11 13:19:00,46.9,46.9,30.29,South,184,0.0,0.0,100,0.00,,---,0.00,VWS V14.01,2013-02-11 21:19:00,
2013-02-11 13:24:00,46.9,46.9,30.29,SW,214,0.0,0.0,100,0.00,,---,0.00,VWS V14.01,2013-02-11 21:24:00,
2013-02-11 13:29:00,47.1,47.1,30.29,SW,214,0.0,0.0,100,0.00,,---,0.00,VWS V14.01,2013-02-11 21:29:00,
2013-02-11 13:34:00,47.1,47.1,30.29,East,100,0.0,0.0,100,0.00,,---,0.00,VWS V14.01,2013-02-11 21:34:00,
2013-02-11 13:39:00,47.1,47.1,30.29,SSE,150,0.0,0.0,100,0.00,,---,0.00,VWS V14.01,2013-02-11 21:39:00,
2013-02-11 13:44:00,47.1,47.1,30.29,SSW,198,0.0,0.0,100,0.00,,---,0.00,VWS V14.01,2013-02-11 21:44:00,
2013-02-11 13:49:00,47.1,47.1,30.29,SSW,198,0.0,0.0,100,0.00,,---,0.00,VWS V14.01,2013-02-11 21:49:00,
2013-02-11 13:54:00,47.1,47.1,30.29,SW,223,0.0,0.0,100,0.00,,---,0.00,VWS V14.01,2013-02-11 21:54:00,
2013-02-11 13:59:00,47.3,47.3,30.29,SSW,193,0.0,0.0,100,0.00,,---,0.00,VWS V14.01,2013-02-11 21:59:00,
2013-02-11 14:04:00,47.3,47.3,30.29,East,89,0.0,0.0,100,0.00,,---,0.00,VWS V14.01,2013-02-11 22:04:00,
2013-02-11 14:09:00,47.3,47.3,30.29,ENE,70,0.0,0.0,100,0.00,,---,0.00,VWS V14.01,2013-02-11 22:09:00,
2013-02-11 14:14:00,47.3,47.3,30.29,ESE,105,0.0,0.0,100,0.00,,---,0.00,VWS V14.01,2013-02-11 22:14:00,
2013-02-11 14:19:00,47.3,47.3,30.29,SSE,155,0.0,0.0,100,0.00,,---,0.00,VWS V14.01,2013-02-11 22:19:00,
2013-02-11 14:24:00,47.3,47.3,30.29,SSE,156,0.0,0.0,100,0.00,,---,0.00,VWS V14.01,2013-02-11 22:24:00,
2013-02-11 14:29:00,47.5,47.5,30.29,SSE,156,0.0,0.0,100,0.00,,---,0.00,VWS V14.01,2013-02-11 22:29:00,
2013-02-11 14:34:00,47.5,47.5,30.29,West,280,0.0,0.0,100,0.00,,---,0.00,VWS V14.01,2013-02-11 22:34:00,
2013-02-11 14:39:00,47.5,47.5,30.29,SW,227,0.0,0.0,100,0.00,,---,0.00,VWS V14.01,2013-02-11 22:39:00,
2013-02-11 14:44:00,47.7,47.7,30.29,SE,134,0.0,0.0,100,0.00,,---,0.00,VWS V14.01,2013-02-11 22:44:00,
2013-02-11 14:49:00,47.7,47.7,30.29,West,264,0.0,0.0,100,0.00,,---,0.00,VWS V14.01,2013-02-11 22:49:00,
2013-02-11 14:54:00,47.7,47.7,30.29,ENE,73,0.0,0.0,100,0.00,,---,0.00,VWS V14.01,2013-02-11 22:54:00,
2013-02-11 14:59:00,47.7,47.7,30.29,SE,129,0.0,0.0,100,0.00,,---,0.00,VWS V14.01,2013-02-11 22:59:00,
2013-02-11 15:04:00,47.8,47.8,30.29,WSW,252,0.0,0.0,100,0.00,,---,0.00,VWS V14.01,2013-02-11 23:04:00,
2013-02-11 15:09:00,47.8,47.8,30.29,West,259,0.0,0.0,100,0.00,,---,0.00,VWS V14.01,2013-02-11 23:09:00,
2013-02-11 15:14:00,48.0,48.0,30.29,West,261,0.0,0.0,100,0.00,,---,0.00,VWS V14.01,2013-02-11 23:14:00,
2013-02-11 15:19:00,48.0,48.0,30.29,ESE,116,0.0,0.0,100,0.00,,---,0.00,VWS V14.01,2013-02-11 23:19:00,
2013-02-11 15:24:00,48.0,48.0,30.29,SW,215,0.0,0.0,100,0.00,,---,0.00,VWS V14.01,2013-02-11 23:24:00,
2013-02-11 15:29:00,48.0,48.0,30.29,South,189,0.0,0.0,100,0.00,,---,0.00,VWS V14.01,2013-02-11 23:29:00,
2013-02-11 15:34:00,48.0,48.0,30.29,South,189,0.0,0.0,100,0.00,,---,0.00,VWS V14.01,2013-02-11 23:34:00,
2013-02-11 15:39:00,48.0,48.0,30.29,ESE,123,0.0,0.0,100,0.00,,---,0.00,VWS V14.01,2013-02-11 23:39:00,
2013-02-11 15:44:00,48.0,48.0,30.29,East,98,0.0,0.0,100,0.00,,---,0.00,VWS V14.01,2013-02-11 23:44:00,
2013-02-11 15:49:00,48.0,48.0,30.29,East,98,0.0,0.0,100,0.00,,---,0.00,VWS V14.01,2013-02-11 23:49:00,
2013-02-11 15:54:00,48.0,48.0,30.29,East,98,0.0,0.0,100,0.00,,---,0.00,VWS V14.01,2013-02-11 23:54:00,
2013-02-11 15:59:00,48.0,48.0,30.29,East,98,0.0,0.0,100,0.00,,---,0.00,VWS V14.01,2013-02-11 23:59:00,
2013-02-11 16:04:00,48.0,48.0,30.29,East,98,0.0,0.0,100,0.00,,---,0.00,VWS V14.01,2013-02-12 00:04:00,
2013-02-11 16:09:00,48.0,48.0,30.29,East,100,0.0,0.0,100,0.00,,---,0.00,VWS V14.01,2013-02-12 00:09:00,
2013-02-11 16:14:00,48.0,48.0,30.29,East,100,0.0,0.0,100,0.00,,---,0.00,VWS V14.01,2013-02-12 00:14:00,
2013-02-11 16:19:00,48.0,48.0,30.29,East,100,0.0,0.0,100,0.00,,---,0.00,VWS V14.01,2013-02-12 00:19:00,
2013-02-11 16:24:00,48.0,48.0,30.29,East,100,0.0,0.0,100,0.00,,---,0.00,VWS V14.01,2013-02-12 00:24:00,
2013-02-11 16:29:00,47.8,47.8,30.29,East,100,0.0,0.0,100,0.00,,---,0.00,VWS V14.01,2013-02-12 00:29:00,
2013-02-11 16:34:00,47.8,47.8,30.29,East,100,0.0,0.0,100,0.00,,---,0.00,VWS V14.01,2013-02-12 00:34:00,
2013-02-11 16:39:00,47.8,47.8,30.29,SE,142,0.0,0.0,100,0.00,,---,0.00,VWS V14.01,2013-02-12 00:39:00,
2013-02-11 16:44:00,47.8,47.8,30.29,SE,142,0.0,0.0,100,0.00,,---,0.00,VWS V14.01,2013-02-12 00:44:00,
2013-02-11 16:49:00,47.7,47.7,30.29,SE,142,0.0,0.0,100,0.00,,---,0.00,VWS V14.01,2013-02-12 00:49:00,
2013-02-11 16:54:00,47.7,47.7,30.29,SE,142,0.0,0.0,100,0.00,,---,0.00,VWS V14.01,2013-02-12 00:54:00,
2013-02-11 16:59:00,47.7,47.7,30.29,SE,143,0.0,0.0,100,0.00,,---,0.00,VWS V14.01,2013-02-12 00:59:00,
2013-02-11 17:04:00,47.7,47.7,30.29,SE,142,0.0,0.0,100,0.00,,---,0.00,VWS V14.01,2013-02-12 01:04:00,
2013-02-11 17:09:00,47.7,47.7,30.29,SE,142,0.0,0.0,100,0.00,,---,0.00,VWS V14.01,2013-02-12 01:09:00,
2013-02-11 17:14:00,47.7,47.7,30.29,SE,142,0.0,0.0,100,0.00,,---,0.00,VWS V14.01,2013-02-12 01:14:00,
2013-02-11 17:19:00,47.7,47.7,30.29,SE,142,0.0,0.0,100,0.00,,---,0.00,VWS V14.01,2013-02-12 01:19:00,
2013-02-11 17:24:00,47.7,47.7,30.29,SE,142,0.0,0.0,100,0.00,,---,0.00,VWS V14.01,2013-02-12 01:24:00,
2013-02-11 17:29:00,47.7,47.7,30.29,SE,143,0.0,0.0,100,0.00,,---,0.00,VWS V14.01,2013-02-12 01:29:00,
2013-02-11 17:34:00,47.7,47.7,30.29,SE,143,0.0,0.0,100,0.00,,---,0.00,VWS V14.01,2013-02-12 01:34:00,
2013-02-11 17:39:00,47.5,47.5,30.29,SE,143,0.0,0.0,100,0.00,,---,0.00,VWS V14.01,2013-02-12 01:39:00,
2013-02-11 17:44:00,47.5,47.5,30.29,SE,142,0.0,0.0,100,0.00,,---,0.00,VWS V14.01,2013-02-12 01:44:00,
2013-02-11 17:49:00,47.5,47.5,30.29,SE,142,0.0,0.0,100,0.00,,---,0.00,VWS V14.01,2013-02-12 01:49:00,
2013-02-11 17:54:00,47.5,47.5,30.29,SE,142,0.0,0.0,100,0.00,,---,0.00,VWS V14.01,2013-02-12 01:54:00,
2013-02-11 17:59:00,47.5,47.5,30.29,SE,142,0.0,0.0,100,0.00,,---,0.00,VWS V14.01,2013-02-12 01:59:00,
2013-02-11 18:04:00,47.3,47.3,30.29,SE,142,0.0,0.0,100,0.00,,---,0.00,VWS V14.01,2013-02-12 02:04:00,
2013-02-11 18:09:00,47.3,47.3,30.29,SE,142,0.0,0.0,100,0.00,,---,0.00,VWS V14.01,2013-02-12 02:09:00,
2013-02-11 18:14:00,47.3,47.3,30.29,SE,142,0.0,0.0,100,0.00,,---,0.00,VWS V14.01,2013-02-12 02:14:00,
2013-02-11 18:19:00,47.3,47.3,30.29,SE,142,0.0,0.0,100,0.00,,---,0.00,VWS V14.01,2013-02-12 02:19:00,
2013-02-11 18:24:00,47.3,47.3,30.29,SE,142,0.0,0.0,100,0.00,,---,0.00,VWS V14.01,2013-02-12 02:24:00,
2013-02-11 18:29:00,47.3,47.3,30.29,ESE,102,0.0,0.0,100,0.00,,---,0.00,VWS V14.01,2013-02-12 02:29:00,
2013-02-11 18:34:00,47.1,47.1,30.29,East,96,0.0,0.0,100,0.00,,---,0.00,VWS V14.01,2013-02-12 02:34:00,
2013-02-11 18:39:00,47.1,47.1,30.29,East,96,0.0,0.0,100,0.00,,---,0.00,VWS V14.01,2013-02-12 02:39:00,
2013-02-11 18:44:00,47.1,47.1,30.29,East,96,0.0,0.0,100,0.00,,---,0.00,VWS V14.01,2013-02-12 02:44:00,
2013-02-11 18:49:00,47.1,47.1,30.29,East,96,0.0,0.0,100,0.00,,---,0.00,VWS V14.01,2013-02-12 02:49:00,
2013-02-11 18:54:00,47.1,47.1,30.29,East,83,0.0,0.0,100,0.00,,---,0.00,VWS V14.01,2013-02-12 02:54:00,
2013-02-11 18:59:00,46.9,46.9,30.29,East,83,0.0,0.0,100,0.00,,---,0.00,VWS V14.01,2013-02-12 02:59:00,
2013-02-11 19:04:00,46.9,46.9,30.29,East,83,0.0,0.0,100,0.00,,---,0.00,VWS V14.01,2013-02-12 03:04:00,
2013-02-11 19:09:00,46.9,46.9,30.29,East,83,0.0,0.0,100,0.00,,---,0.00,VWS V14.01,2013-02-12 03:09:00,
2013-02-11 19:14:00,46.9,46.9,30.29,East,83,0.0,0.0,100,0.00,,---,0.00,VWS V14.01,2013-02-12 03:14:00,
2013-02-11 19:19:00,46.8,46.8,30.29,East,83,0.0,0.0,100,0.00,,---,0.00,VWS V14.01,2013-02-12 03:19:00,
2013-02-11 19:24:00,46.8,46.8,30.29,East,83,0.0,0.0,100,0.00,,---,0.00,VWS V14.01,2013-02-12 03:24:00,
2013-02-11 19:29:00,46.8,46.8,30.29,East,83,0.0,0.0,100,0.00,,---,0.00,VWS V14.01,2013-02-12 03:29:00,
2013-02-11 19:34:00,46.8,46.8,30.29,East,83,0.0,0.0,100,0.00,,---,0.00,VWS V14.01,2013-02-12 03:34:00,
2013-02-11 19:39:00,46.6,46.6,30.29,East,83,0.0,0.0,100,0.00,,---,0.00,VWS V14.01,2013-02-12 03:39:00,
2013-02-11 19:44:00,46.6,46.6,30.29,East,83,0.0,0.0,100,0.00,,---,0.00,VWS V14.01,2013-02-12 03:44:00,
2013-02-11 19:49:00,46.6,46.6,30.29,East,83,0.0,0.0,100,0.00,,---,0.00,VWS V14.01,2013-02-12 03:49:00,
2013-02-11 19:54:00,46.6,46.6,30.29,East,83,0.0,0.0,100,0.00,,---,0.00,VWS V14.01,2013-02-12 03:54:00,
2013-02-11 19:59:00,46.6,46.6,30.29,East,83,0.0,0.0,100,0.00,,---,0.00,VWS V14.01,2013-02-12 03:59:00,
2013-02-11 20:04:00,46.4,46.4,30.29,East,83,0.0,0.0,100,0.00,,---,0.00,VWS V14.01,2013-02-12 04:04:00,
2013-02-11 20:09:00,46.4,46.4,30.29,East,83,0.0,0.0,100,0.00,,---,0.00,VWS V14.01,2013-02-12 04:09:00,
2013-02-11 20:14:00,46.4,46.4,30.29,East,83,0.0,0.0,100,0.00,,---,0.00,VWS V14.01,2013-02-12 04:14:00,
2013-02-11 20:19:00,46.4,46.4,30.29,East,83,0.0,0.0,100,0.00,,---,0.00,VWS V14.01,2013-02-12 04:19:00,
2013-02-11 20:24:00,46.4,46.4,30.29,East,83,0.0,0.0,100,0.00,,---,0.00,VWS V14.01,2013-02-12 04:24:00,
2013-02-11 20:29:00,46.4,46.4,30.29,East,83,0.0,0.0,100,0.00,,---,0.00,VWS V14.01,2013-02-12 04:29:00,
2013-02-11 20:34:00,46.4,46.4,30.29,East,83,0.0,0.0,100,0.00,,---,0.00,VWS V14.01,2013-02-12 04:34:00,
2013-02-11 20:39:00,46.4,46.4,30.29,East,83,0.0,0.0,100,0.00,,---,0.00,VWS V14.01,2013-02-12 04:39:00,
2013-02-11 20:44:00,46.2,46.2,30.29,East,83,0.0,0.0,100,0.00,,---,0.00,VWS V14.01,2013-02-12 04:44:00,
2013-02-11 20:49:00,46.2,46.2,30.29,East,83,0.0,0.0,100,0.00,,---,0.00,VWS V14.01,2013-02-12 04:49:00,
2013-02-11 20:54:00,46.2,46.2,30.29,East,83,0.0,0.0,100,0.00,,---,0.00,VWS V14.01,2013-02-12 04:54:00,
2013-02-11 20:59:00,46.2,46.2,30.29,East,83,0.0,0.0,100,0.00,,---,0.00,VWS V14.01,2013-02-12 04:59:00,
2013-02-11 21:00:00,46.2,46.2,30.29,East,83,0.0,0.0,100,0.00,,---,0.00,VWS V14.01,2013-02-12 05:00:00,
2013-02-11 21:05:00,46.2,46.2,30.29,East,83,0.0,0.0,100,0.00,,---,0.00,VWS V14.01,2013-02-12 05:05:00,
2013-02-11 21:10:00,46.2,46.2,30.29,East,83,0.0,0.0,100,0.00,,---,0.00,VWS V14.01,2013-02-12 05:10:00,
2013-02-11 21:15:00,46.2,46.2,30.29,East,83,0.0,0.0,100,0.00,,---,0.00,VWS V14.01,2013-02-12 05:15:00,
2013-02-11 21:20:00,46.2,46.2,30.29,East,83,0.0,0.0,100,0.00,,---,0.00,VWS V14.01,2013-02-12 05:20:00,
2013-02-11 21:25:00,46.2,46.2,30.29,East,83,0.0,0.0,100,0.00,,---,0.00,VWS V14.01,2013-02-12 05:25:00,
2013-02-11 21:30:00,46.2,46.2,30.29,East,83,0.0,0.0,100,0.00,,---,0.00,VWS V14.01,2013-02-12 05:30:00,
2013-02-11 21:35:00,46.0,46.0,30.29,East,83,0.0,0.0,100,0.00,,---,0.00,VWS V14.01,2013-02-12 05:35:00,
2013-02-11 21:40:00,46.0,46.0,30.29,East,83,0.0,0.0,100,0.00,,---,0.00,VWS V14.01,2013-02-12 05:40:00,
2013-02-11 21:45:00,46.0,46.0,30.29,East,83,0.0,0.0,100,0.00,,---,0.00,VWS V14.01,2013-02-12 05:45:00,
2013-02-11 21:50:00,46.0,46.0,30.29,East,83,0.0,0.0,100,0.00,,---,0.00,VWS V14.01,2013-02-12 05:50:00,
2013-02-11 21:55:00,46.0,46.0,30.29,East,83,0.0,0.0,100,0.00,,---,0.00,VWS V14.01,2013-02-12 05:55:00,
2013-02-11 22:00:00,45.9,45.9,30.29,East,83,0.0,0.0,100,0.00,,---,0.00,VWS V14.01,2013-02-12 06:00:00,
2013-02-11 22:05:00,45.9,45.9,30.29,East,83,0.0,0.0,100,0.00,,---,0.00,VWS V14.01,2013-02-12 06:05:00,
2013-02-11 22:10:00,45.9,45.9,30.29,East,83,0.0,0.0,100,0.00,,---,0.00,VWS V14.01,2013-02-12 06:10:00,
2013-02-11 22:15:00,45.9,45.9,30.29,East,83,0.0,0.0,100,0.00,,---,0.00,VWS V14.01,2013-02-12 06:15:00,
2013-02-11 22:20:00,45.9,45.9,30.29,East,83,0.0,0.0,100,0.00,,---,0.00,VWS V14.01,2013-02-12 06:20:00,
2013-02-11 22:25:00,45.9,45.9,30.29,East,83,0.0,0.0,100,0.00,,---,0.00,VWS V14.01,2013-02-12 06:25:00,
2013-02-11 22:30:00,45.7,45.7,30.29,East,83,0.0,0.0,100,0.00,,---,0.00,VWS V14.01,2013-02-12 06:30:00,
2013-02-11 22:35:00,45.7,45.7,30.29,East,83,0.0,0.0,100,0.00,,---,0.00,VWS V14.01,2013-02-12 06:35:00,
2013-02-11 22:40:00,45.7,45.7,30.29,East,83,0.0,0.0,100,0.00,,---,0.00,VWS V14.01,2013-02-12 06:40:00,
2013-02-11 22:45:00,45.7,45.7,30.29,East,83,0.0,0.0,100,0.00,,---,0.00,VWS V14.01,2013-02-12 06:45:00,
2013-02-11 22:50:00,45.7,45.7,30.29,East,83,0.0,0.0,100,0.00,,---,0.00,VWS V14.01,2013-02-12 06:50:00,
2013-02-11 22:55:00,45.7,45.7,30.29,East,83,0.0,0.0,100,0.00,,---,0.00,VWS V14.01,2013-02-12 06:55:00,
2013-02-11 23:00:00,45.7,45.7,30.29,East,83,0.0,0.0,100,0.00,,---,0.00,VWS V14.01,2013-02-12 07:00:00,
2013-02-11 23:05:00,45.7,45.7,30.29,East,83,0.0,0.0,100,0.00,,---,0.00,VWS V14.01,2013-02-12 07:05:00,
2013-02-11 23:10:00,45.7,45.7,30.29,East,83,0.0,0.0,100,0.00,,---,0.00,VWS V14.01,2013-02-12 07:10:00,
2013-02-11 23:15:00,45.7,45.7,30.29,East,83,0.0,0.0,100,0.00,,---,0.00,VWS V14.01,2013-02-12 07:15:00,
2013-02-11 23:20:00,45.5,45.5,30.32,East,83,0.0,0.0,100,0.00,,---,0.00,VWS V14.01,2013-02-12 07:20:00,
2013-02-11 23:25:00,45.5,45.5,30.32,East,83,0.0,0.0,100,0.00,,---,0.00,VWS V14.01,2013-02-12 07:25:00,
2013-02-11 23:30:00,45.5,45.5,30.32,East,83,0.0,0.0,100,0.00,,---,0.00,VWS V14.01,2013-02-12 07:30:00,
2013-02-11 23:35:00,45.5,45.5,30.32,East,83,0.0,0.0,100,0.00,,---,0.00,VWS V14.01,2013-02-12 07:35:00,
2013-02-11 23:40:00,45.5,45.5,30.32,East,83,0.0,0.0,100,0.00,,---,0.00,VWS V14.01,2013-02-12 07:40:00,
2013-02-11 23:45:00,45.5,45.5,30.32,East,83,0.0,0.0,100,0.00,,---,0.00,VWS V14.01,2013-02-12 07:45:00,
2013-02-11 23:50:00,45.5,45.5,30.32,East,83,0.0,0.0,100,0.00,,---,0.00,VWS V14.01,2013-02-12 07:50:00,
2013-02-11 23:55:00,45.3,45.3,30.32,East,83,0.0,0.0,100,0.00,,---,0.00,VWS V14.01,2013-02-12 07:55:00,